[[{"header":{"parameterUnit":"m.s-1","parameterCategory":2,"la1":30.2991,"la2":30.254,"lo1":-89.0895,"lo2":-89.0444,"dy":0.0017,"dx":0.0017,"nx":28,"ny":28,"refTime":"2023-07-20T03:00:00:Z","depth":"0","parameterNumber":2,"parameterNumberName":"U-component_of_CURRENTS"},"data":[0,0,0,0,0,0,0,0,0,0,0,0,0,0,0,0,0,0,0,0,0,0,0,0,0,0,0,0,0,0,0,0,0,0,0,0,0,0,0,0,0,0,0,0,0,0,0,0,0,0,0,0,0,0,0,0,0,0,0.4253,0.4252,0,0.419,0.4189,0.4188,0.4145,0.4145,0.4145,0.4145,0.4163,0.4163,0.4163,0,0,0,0,0,0,0,0,0,0,0,0,0,0.4156,0.4159,0.4253,0.4252,0.4252,0.4191,0.4189,0.4188,0.4145,0.4145,0.4145,0.4146,0.4163,0.4163,0.4163,0,0,0,0,0,0,0,0,0,0,0,0,0,0.4151,0.4159,0.4253,0.4228,0.4226,0.4191,0.4189,0.4187,0.4145,0.4145,0.4145,0.4146,0.4163,0.4163,0.4163,0.4157,0,0,0.4164,0.4164,0,0,0,0,0,0,0,0,0.4151,0.4153,0.4232,0.423,0.4227,0.4181,0.4162,0.4183,0.4144,0.4169,0.4145,0.4146,0.418,0.4179,0.4156,0.4158,0.4159,0.4164,0.4165,0.4165,0.4165,0,0,0,0,0,0,0,0.4152,0.4155,0.4221,0.4232,0.4229,0.416,0.416,0.4164,0.4169,0.4166,0.4165,0.4168,0.4179,0.4156,0.4157,0.4159,0.4164,0.4165,0.4165,0.4165,0.4267,0.427,0,0,0,0,0,0,0.4182,0.4157,0.4223,0.422,0.4197,0.4162,0.4162,0.419,0.4168,0.4166,0.4168,0.4166,0.4155,0.4156,0.4157,0.4181,0.4165,0.4165,0.4165,0.4265,0.4268,0.427,0,0,0,0,0,0,0.4181,0.419,0.4226,0.419,0.4191,0.4166,0.4196,0.4189,0.4173,0.4169,0.4167,0.416,0.4155,0.4157,0.4172,0.4181,0.4165,0.4165,0.4262,0.4266,0.4269,0.4209,0,0,0,0,0,0,0.4179,0.419,0.4205,0.4193,0.4194,0.4201,0.4196,0.4188,0.4177,0.4174,0.4162,0.4163,0.4156,0.4171,0.4172,0.4181,0.4166,0.4258,0.4263,0.4268,0.4207,0.421,0.4212,0,0,0,0,0,0.4176,0.422,0.4207,0.4214,0.4223,0.4201,0.4193,0.4171,0.4177,0.4159,0.4168,0.4164,0.4204,0.4172,0.4173,0.4182,0.4256,0.4262,0.4267,0.4206,0.4209,0.4212,0,0,0,0,0,0,0.4183,0.4219,0.4206,0.4256,0.4222,0.4197,0.4189,0.4176,0.4164,0.4171,0.4171,0.4172,0.42,0.4212,0.4178,0.4238,0.424,0.4246,0.4194,0.4197,0.4199,0.4214,0.4166,0,0,0,0,0,0.4194,0.4235,0.4226,0.4254,0.4246,0.4214,0.4202,0.4184,0.4179,0.4172,0.4159,0.4184,0.4223,0.4224,0.4249,0.4257,0.4306,0.428,0.4282,0.4283,0.4304,0.4399,0.441,0.4289,0.4289,0.4289,0,0,0.4195,0.4227,0.4242,0.4256,0.4232,0.4202,0.4206,0.4192,0.4172,0.418,0.4154,0.4186,0.4234,0.425,0.4265,0.4255,0.4341,0.429,0.429,0.4311,0.4406,0.4417,0.4427,0.4293,0.4292,0.4292,0,0,0.4213,0.4252,0.4271,0.4248,0.4229,0.4206,0.4206,0.4171,0.4163,0.4144,0.4176,0.4216,0.4221,0.4263,0.4292,0.4332,0.4359,0.4346,0.4344,0.4434,0.4444,0.4454,0.4501,0.4516,0.4333,0.4333,0.4333,0,0.4202,0.4237,0.4261,0.4254,0.4235,0.4211,0.4184,0.417,0.4138,0.4153,0.4136,0.4219,0.4237,0.4317,0.4325,0.4333,0.4378,0.4311,0.4433,0.4444,0.4454,0.4501,0.4518,0.4331,0.4331,0.4331,0.4331,0,0.4204,0.4221,0.423,0.4216,0.4196,0.4174,0.4155,0.4136,0.4127,0.4125,0.4187,0.422,0.4283,0.4294,0.4309,0.4407,0.4411,0.4427,0.441,0.4462,0.4509,0.4527,0.4327,0.4328,0.4329,0.4329,0,0,0.4183,0.4225,0.4218,0.4206,0.4176,0.4158,0.4144,0.4135,0.4147,0.4143,0.4181,0.4253,0.4295,0.4339,0.4379,0.4437,0.4522,0.4451,0.4457,0.447,0.4698,0.4564,0.4571,0.4552,0.4556,0.4559,0.4687,0,0.4151,0.417,0.4185,0.4145,0.4133,0.412,0.4112,0.4111,0.4115,0.4139,0.4229,0.4279,0.431,0.4342,0.4418,0.4529,0.4574,0.4485,0.4673,0.4679,0.453,0.4589,0.4289,0.4367,0.4705,0.4708,0.4711,0,0.4111,0.4139,0.4131,0.4138,0.413,0.4096,0.4091,0.4081,0.4134,0.4157,0.424,0.4299,0.4433,0.4419,0.4642,0.4586,0.464,0.4693,0.47,0.4615,0.458,0.4382,0.4388,0.4239,0.4739,0.4737,0.4735,0,0.4073,0.4084,0.4092,0.4082,0.4086,0.4077,0.4064,0.4087,0.4085,0.4171,0.4181,0.4367,0.4428,0.4589,0.4715,0.4692,0.4919,0.4907,0.4828,0.4818,0.4623,0.4588,0.4484,0.5024,0.5024,0.5024,0.5023,0,0.4029,0.4016,0.4077,0.4063,0.4047,0.4061,0.404,0.4055,0.4086,0.4082,0.4197,0.4223,0.4467,0.4607,0.4744,0.4857,0.4963,0.4847,0.4855,0.4589,0.4552,0.4464,0.4504,0.5029,0.5027,0.5027,0.5026,0,0.396,0.4007,0.4001,0.4029,0.4023,0.4005,0.3977,0.3973,0.4011,0.4005,0.403,0.415,0.432,0.4537,0.4777,0.4841,0.4841,0.4982,0.4631,0.4593,0.4345,0.4396,0.4209,0.412,0.4928,0.4925,0.4923,0,0.3929,0.3936,0.396,0.3956,0.3953,0.3933,0.3913,0.3927,0.3909,0.3935,0.3928,0.4054,0.409,0.4402,0.4585,0.4804,0.4697,0.4601,0.4495,0.4295,0.4362,0.4186,0.4114,0.4212,0.4205,0.4198,0.4193,0,0.3871,0.3892,0.3909,0.3878,0.3854,0.3811,0.3777,0.3746,0.3755,0.3734,0.3709,0.3727,0.3943,0.3992,0.4245,0.4359,0.4333,0.4473,0.4372,0.3885,0.3588,0.3514,0.4154,0.4137,0.4143,0.4147,0.415,0.4152,0.3823,0.3817,0.3835,0.3764,0.3751,0.3651,0.3538,0.3523,0.3433,0.331,0.3449,0.3347,0.347,0.3757,0.3835,0.3782,0.3947,0.3682,0.3792,0.3649,0.3449,0.3943,0.3868,0.3872,0.3876,0.3879,0.3881,0,0.3698,0.3707,0.3701,0.3597,0.3489,0.3504,0.3404,0.3251,0.3072,0.3042,0.2964,0.2911,0.29,0.3019,0.3136,0.3102,0.2967,0.3081,0.277,0.2771,0.3278,0.3126,0.2755,0.2756,0.2756,0.2756,0.2756,0.2756,0.3639,0.3575,0.3539,0.3317,0.3243,0.2994,0.2881,0.2728,0.2644,0.2416,0.2297,0.2339,0.2542,0.2656,0.2585,0.2567,0.2439,0.2305,0.2477,0.2833,0.2895,0.2954,0.2808,0.2377,0.2377,0.1661,0.1657,0.1654]},{"header":{"parameterUnit":"m.s-1","parameterCategory":2,"la1":30.2991,"la2":30.254,"lo1":-89.0895,"lo2":-89.0444,"dy":0.0017,"dx":0.0017,"nx":28,"ny":28,"refTime":"2023-07-20T03:00:00:Z","depth":"0","parameterNumber":3,"parameterNumberName":"V-component_of_CURRENTS"},"data":[0,0,0,0,0,0,0,0,0,0,0,0,0,0,0,0,0,0,0,0,0,0,0,0,0,0,0,0,0,0,0,0,0,0,0,0,0,0,0,0,0,0,0,0,0,0,0,0,0,0,0,0,0,0,0,0,0,0,0.1108,0.1108,0,0.1116,0.1116,0.1116,0.1109,0.1108,0.1108,0.1107,0.1106,0.1106,0.1106,0,0,0,0,0,0,0,0,0,0,0,0,0,0.106,0.1061,0.1108,0.1108,0.1107,0.1115,0.1116,0.1116,0.1109,0.1108,0.1108,0.1107,0.1106,0.1106,0.1107,0,0,0,0,0,0,0,0,0,0,0,0,0,0.1078,0.1061,0.1108,0.1103,0.1103,0.1115,0.1116,0.1116,0.1109,0.1108,0.1108,0.1107,0.1105,0.1106,0.1107,0.1126,0,0,0.1109,0.1109,0,0,0,0,0,0,0,0,0.1077,0.108,0.1104,0.1103,0.1103,0.1108,0.1098,0.1118,0.1109,0.1109,0.1107,0.1106,0.1105,0.1105,0.1112,0.1126,0.1126,0.1109,0.1109,0.1109,0.1109,0,0,0,0,0,0,0,0.1075,0.1079,0.1113,0.1104,0.1103,0.1091,0.1094,0.1102,0.1113,0.1109,0.1108,0.1105,0.1105,0.1111,0.1112,0.1126,0.1109,0.1109,0.111,0.111,0.1121,0.1121,0,0,0,0,0,0,0.1072,0.1078,0.1113,0.1113,0.1085,0.1093,0.1095,0.1109,0.1113,0.1112,0.1106,0.1105,0.1111,0.1111,0.1112,0.1143,0.1109,0.111,0.111,0.1121,0.1121,0.1121,0,0,0,0,0,0,0.1072,0.1076,0.1112,0.1093,0.1096,0.1094,0.111,0.111,0.1114,0.111,0.1109,0.111,0.111,0.1111,0.1112,0.1142,0.111,0.1111,0.1121,0.1121,0.1121,0.1199,0,0,0,0,0,0,0.1071,0.1076,0.1101,0.1093,0.1097,0.1122,0.1111,0.111,0.1113,0.1112,0.1114,0.1113,0.111,0.1111,0.1113,0.1142,0.1111,0.1122,0.1121,0.1121,0.1197,0.1202,0.1206,0,0,0,0,0,0.1069,0.1113,0.1103,0.1107,0.1127,0.1123,0.1124,0.1121,0.1114,0.1121,0.1114,0.1113,0.1111,0.1112,0.1114,0.1144,0.1122,0.1121,0.1121,0.1195,0.1201,0.1206,0,0,0,0,0,0,0.1106,0.1116,0.1105,0.1149,0.1132,0.112,0.1135,0.1124,0.1126,0.1124,0.1117,0.1116,0.1131,0.1116,0.1117,0.1141,0.1115,0.1115,0.117,0.1175,0.118,0.121,0.1112,0,0,0,0,0,0.1123,0.1162,0.1141,0.1176,0.1165,0.1146,0.1149,0.1138,0.1131,0.1132,0.1132,0.1127,0.1134,0.1135,0.1137,0.1152,0.1141,0.1167,0.1172,0.1176,0.1198,0.1183,0.119,0.1121,0.1121,0.1121,0,0,0.1149,0.1157,0.1181,0.1186,0.1172,0.1179,0.1147,0.1147,0.1171,0.1132,0.1169,0.1149,0.114,0.116,0.1164,0.1151,0.119,0.1176,0.1181,0.1201,0.1184,0.1191,0.1197,0.112,0.1121,0.1121,0,0,0.1179,0.1215,0.1227,0.1232,0.1212,0.1211,0.1208,0.1191,0.1201,0.1218,0.1198,0.1189,0.1203,0.12,0.1201,0.1228,0.1217,0.1224,0.1278,0.1263,0.1269,0.1275,0.1278,0.1283,0.1225,0.1225,0.1225,0,0.1191,0.1221,0.1228,0.1233,0.126,0.1225,0.1241,0.1252,0.1244,0.127,0.1238,0.1253,0.1229,0.1264,0.1265,0.1245,0.1238,0.1264,0.1272,0.1277,0.1281,0.1284,0.1288,0.1229,0.1228,0.1228,0.1228,0,0.1206,0.1247,0.1257,0.127,0.1302,0.1314,0.1326,0.1349,0.1354,0.1364,0.1393,0.1349,0.1367,0.1341,0.1314,0.1337,0.1323,0.1284,0.1267,0.1294,0.1293,0.1297,0.1234,0.1233,0.1232,0.1231,0,0,0.117,0.1249,0.1247,0.1293,0.1332,0.136,0.142,0.1463,0.1522,0.1498,0.1568,0.153,0.1507,0.1503,0.1456,0.1418,0.1426,0.1367,0.1364,0.1388,0.1412,0.1403,0.1405,0.1389,0.1389,0.139,0.1404,0,0.1157,0.1206,0.1257,0.1341,0.1379,0.1435,0.1513,0.1569,0.1604,0.1666,0.1626,0.1658,0.1573,0.1572,0.1534,0.1466,0.1438,0.1427,0.1368,0.1367,0.1369,0.141,0.1349,0.1356,0.1407,0.1408,0.1408,0,0.1128,0.1185,0.1255,0.1421,0.1441,0.1494,0.1643,0.1707,0.1792,0.1823,0.1845,0.1829,0.1812,0.1708,0.1631,0.1632,0.1538,0.1456,0.1454,0.1426,0.1364,0.1333,0.1361,0.119,0.1413,0.1413,0.1412,0,0.1092,0.1197,0.1273,0.1321,0.1474,0.1538,0.162,0.1738,0.1808,0.1912,0.1952,0.1965,0.1941,0.1856,0.1717,0.168,0.1614,0.1544,0.1448,0.1447,0.1376,0.1367,0.1247,0.1475,0.1475,0.1475,0.1475,0,0.1074,0.1139,0.1262,0.1306,0.1429,0.1549,0.1672,0.1764,0.1882,0.1959,0.2015,0.2042,0.1964,0.1922,0.1795,0.1664,0.1688,0.1484,0.1455,0.1401,0.1394,0.1226,0.1214,0.1475,0.1475,0.1475,0.1475,0,0.1021,0.1094,0.1198,0.1355,0.1407,0.1497,0.1668,0.1754,0.1877,0.1974,0.2003,0.209,0.2052,0.1979,0.1845,0.1746,0.1577,0.1559,0.152,0.1487,0.1241,0.1239,0.1235,0.1236,0.1481,0.1481,0.1481,0,0.1002,0.1042,0.1196,0.1258,0.1321,0.1457,0.1546,0.1714,0.1803,0.1973,0.2008,0.2044,0.205,0.1939,0.1799,0.1661,0.1548,0.1502,0.1405,0.1246,0.1221,0.1241,0.1244,0.1341,0.134,0.1339,0.1338,0,0.098,0.1019,0.11,0.1205,0.1301,0.1427,0.156,0.1624,0.1814,0.1906,0.2003,0.2028,0.1963,0.1823,0.1693,0.1588,0.1459,0.1475,0.1305,0.112,0.114,0.112,0.1328,0.1329,0.133,0.1331,0.1331,0.1332,0.0954,0.1,0.1085,0.1184,0.1287,0.1396,0.1469,0.16,0.1734,0.1871,0.1929,0.1964,0.1803,0.163,0.1495,0.1235,0.1356,0.1096,0.1116,0.1153,0.1134,0.1348,0.1316,0.1317,0.1318,0.1318,0.1319,0,0.0952,0.1003,0.1072,0.1198,0.1266,0.1342,0.1486,0.1551,0.1663,0.1783,0.1858,0.1798,0.1536,0.1333,0.1028,0.0864,0.0859,0.079,0.075,0.0778,0.0919,0.0882,0.076,0.076,0.076,0.076,0.0761,0.0761,0.096,0.1018,0.1048,0.1151,0.1224,0.1307,0.1372,0.1465,0.1567,0.1677,0.1727,0.1806,0.1752,0.1025,0.0594,0.0524,0.0457,0.0477,0.0497,0.0481,0.0508,0.0533,0.0484,0.0282,0.0281,0.0312,0.0312,0.0311]}],[{"header":{"parameterUnit":"m.s-1","parameterCategory":2,"la1":30.2991,"la2":30.254,"lo1":-89.0895,"lo2":-89.0444,"dy":0.0017,"dx":0.0017,"nx":28,"ny":28,"refTime":"2023-07-20T03:00:00:Z","depth":"2","parameterNumber":2,"parameterNumberName":"U-component_of_CURRENTS"},"data":[0,0,0,0,0,0,0,0,0,0,0,0,0,0,0,0,0,0,0,0,0,0,0,0,0,0,0,0,0,0,0,0,0,0,0,0,0,0,0,0,0,0,0,0,0,0,0,0,0,0,0,0,0,0,0,0,0,0,0.3031,0.3034,0,0.3356,0.3359,0.3363,0.3599,0.3601,0.3603,0.3605,0.3555,0.3552,0.3549,0,0,0,0,0,0,0,0,0,0,0,0,0,0.3109,0.3103,0.303,0.3034,0.3039,0.3355,0.336,0.3364,0.3599,0.3601,0.3604,0.3606,0.3557,0.3553,0.3549,0,0,0,0,0,0,0,0,0,0,0,0,0,0.3216,0.3101,0.303,0.3195,0.3213,0.3354,0.336,0.3365,0.3598,0.3601,0.3605,0.3608,0.3558,0.3553,0.3548,0.3456,0,0,0.3533,0.3531,0,0,0,0,0,0,0,0,0.3209,0.3213,0.3166,0.3184,0.3204,0.3441,0.337,0.3377,0.3598,0.3451,0.3605,0.3609,0.348,0.3482,0.3541,0.3453,0.3451,0.3533,0.353,0.3528,0.3526,0,0,0,0,0,0,0,0.3201,0.3203,0.3158,0.317,0.3194,0.3424,0.3437,0.3377,0.3436,0.3464,0.3482,0.3519,0.3489,0.3545,0.354,0.345,0.3533,0.3529,0.3526,0.3524,0.3598,0.3602,0,0,0,0,0,0,0.3131,0.3191,0.3148,0.3168,0.3216,0.3417,0.3433,0.3361,0.3446,0.3465,0.3516,0.3529,0.3552,0.3545,0.3538,0.3571,0.3528,0.3523,0.352,0.3593,0.3599,0.3604,0,0,0,0,0,0,0.313,0.312,0.3135,0.3198,0.3215,0.3409,0.3329,0.3366,0.3451,0.349,0.3503,0.3566,0.3554,0.3545,0.36,0.3565,0.3521,0.3516,0.3587,0.3595,0.3601,0.3544,0,0,0,0,0,0,0.3128,0.3114,0.3068,0.3187,0.3209,0.3227,0.3328,0.337,0.3468,0.3488,0.3534,0.3534,0.3556,0.3609,0.3596,0.3557,0.3513,0.3581,0.359,0.3599,0.354,0.3549,0.3556,0,0,0,0,0,0.3128,0.2993,0.306,0.3059,0.3122,0.3227,0.326,0.3415,0.3466,0.3502,0.3602,0.3534,0.3658,0.3608,0.3592,0.355,0.3576,0.3588,0.3598,0.3536,0.3547,0.3556,0,0,0,0,0,0,0.2991,0.3009,0.3084,0.296,0.3111,0.3268,0.3344,0.3405,0.3515,0.3546,0.3575,0.3582,0.36,0.3623,0.3567,0.3625,0.361,0.3618,0.3569,0.3578,0.3586,0.3598,0.3509,0,0,0,0,0,0.2938,0.2865,0.2977,0.2915,0.3001,0.3178,0.3249,0.3333,0.344,0.3497,0.3547,0.3612,0.3627,0.3647,0.3663,0.3673,0.3657,0.3659,0.3667,0.3672,0.3688,0.3653,0.3655,0.364,0.364,0.364,0,0,0.2898,0.2888,0.2866,0.2892,0.3056,0.3119,0.3232,0.3335,0.3385,0.3454,0.3562,0.36,0.3638,0.3683,0.3693,0.3699,0.3677,0.3687,0.3689,0.3702,0.3664,0.3664,0.3663,0.3648,0.3646,0.3645,0,0,0.2779,0.2781,0.2722,0.2835,0.3002,0.309,0.3107,0.3281,0.339,0.3491,0.3545,0.3621,0.367,0.3714,0.3728,0.3793,0.3696,0.3779,0.3829,0.3793,0.3791,0.3788,0.3765,0.3761,0.3809,0.3809,0.3809,0,0.2775,0.2678,0.2747,0.2769,0.2896,0.3059,0.3121,0.3209,0.3369,0.3436,0.3533,0.3662,0.3694,0.3706,0.3792,0.3791,0.3764,0.3757,0.379,0.3788,0.3786,0.3763,0.3759,0.3808,0.3808,0.3808,0.3808,0,0.2676,0.2642,0.2663,0.2727,0.2822,0.2932,0.3077,0.3168,0.3315,0.3391,0.3508,0.3642,0.372,0.3743,0.3802,0.3798,0.3778,0.376,0.3727,0.3781,0.3758,0.3754,0.3806,0.3806,0.3807,0.3807,0,0,0.2637,0.2602,0.2631,0.2647,0.2853,0.2876,0.3007,0.3142,0.3158,0.3367,0.3448,0.3592,0.3664,0.3699,0.3753,0.3797,0.379,0.3805,0.3804,0.3718,0.3705,0.3298,0.3255,0.3743,0.3743,0.3743,0.3687,0,0.2648,0.2545,0.2597,0.2618,0.2637,0.2856,0.2917,0.3014,0.3175,0.3257,0.344,0.3508,0.363,0.3689,0.3742,0.373,0.3782,0.3808,0.3726,0.3725,0.3298,0.3237,0.3166,0.3073,0.3684,0.3683,0.3682,0,0.2603,0.2534,0.2509,0.2503,0.256,0.2611,0.2775,0.2865,0.3008,0.3125,0.3272,0.3366,0.3475,0.3606,0.364,0.3633,0.3703,0.3742,0.3738,0.3372,0.3307,0.313,0.3044,0.3676,0.3677,0.3677,0.3678,0,0.2477,0.248,0.2425,0.2476,0.2499,0.26,0.2709,0.2846,0.2937,0.3084,0.3128,0.3223,0.3315,0.3387,0.3468,0.3558,0.3467,0.3576,0.3296,0.3271,0.3203,0.3165,0.365,0.365,0.365,0.365,0.365,0,0.2428,0.2375,0.2358,0.2343,0.2358,0.2471,0.2561,0.2672,0.2836,0.2907,0.3061,0.3112,0.3273,0.3253,0.3363,0.3207,0.3356,0.3265,0.3196,0.318,0.3143,0.3678,0.3682,0.3648,0.3648,0.3649,0.3649,0,0.227,0.2236,0.2183,0.2241,0.2281,0.2332,0.2556,0.2607,0.2725,0.2862,0.2924,0.3006,0.2944,0.2979,0.3041,0.2999,0.2945,0.2896,0.2838,0.2757,0.2848,0.2853,0.2606,0.2591,0.2578,0.2567,0.2557,0,0.2173,0.2111,0.2144,0.2192,0.2274,0.2373,0.2476,0.2606,0.268,0.2805,0.2841,0.2811,0.2747,0.2496,0.2396,0.2293,0.2599,0.219,0.2345,0.2765,0.2728,0.2753,0.2774,0.231,0.23,0.2291,0.2284,0,0.2056,0.2077,0.204,0.2198,0.2309,0.2365,0.2526,0.2499,0.2666,0.2672,0.2686,0.2638,0.2367,0.2126,0.1832,0.1816,0.2155,0.1995,0.2441,0.2487,0.2452,0.2425,0.2465,0.2208,0.2215,0.2221,0.2225,0.2228,0.2,0.2041,0.2075,0.2221,0.2333,0.2402,0.2388,0.2494,0.2494,0.2486,0.2484,0.2302,0.2113,0.1543,0.1444,0.1369,0.151,0.1625,0.167,0.1721,0.1596,0.1527,0.1094,0.1095,0.1096,0.1097,0.1098,0,0.1902,0.1973,0.2145,0.223,0.2328,0.2439,0.2424,0.2361,0.2297,0.2287,0.2205,0.1766,0.1491,0.1371,0.1136,0.0986,0.1182,0.1019,0.1421,0.1487,0.1549,0.1438,0.0884,0.0884,0.0884,0.0884,0,0,0.1817,0.1871,0.2023,0.2166,0.2294,0.2306,0.2248,0.2168,0.206,0.1855,0.1695,0.1528,0.1361,0.1157,0.1043,0.1014,0.129,0.0963,0.1124,0.1672,0.1737,0.1847,0.1733,0,0,0,0,0]},{"header":{"parameterUnit":"m.s-1","parameterCategory":2,"la1":30.2991,"la2":30.254,"lo1":-89.0895,"lo2":-89.0444,"dy":0.0017,"dx":0.0017,"nx":28,"ny":28,"refTime":"2023-07-20T03:00:00:Z","depth":"2","parameterNumber":3,"parameterNumberName":"V-component_of_CURRENTS"},"data":[0,0,0,0,0,0,0,0,0,0,0,0,0,0,0,0,0,0,0,0,0,0,0,0,0,0,0,0,0,0,0,0,0,0,0,0,0,0,0,0,0,0,0,0,0,0,0,0,0,0,0,0,0,0,0,0,0,0,-0.0044,-0.0041,0,0.0272,0.0276,0.0279,0.046,0.0461,0.0461,0.0462,0.0364,0.036,0.0357,0,0,0,0,0,0,0,0,0,0,0,0,0,0.0066,0.0059,-0.0044,-0.004,-0.0036,0.0271,0.0276,0.028,0.046,0.0461,0.0462,0.0462,0.0365,0.0361,0.0357,0,0,0,0,0,0,0,0,0,0,0,0,0,0.0162,0.0057,-0.0045,0.009,0.0106,0.0271,0.0276,0.0281,0.046,0.0461,0.0462,0.0463,0.0366,0.0361,0.0356,0.0308,0,0,0.0342,0.034,0,0,0,0,0,0,0,0,0.0156,0.0157,0.0067,0.0081,0.0099,0.0328,0.028,0.027,0.046,0.0326,0.0462,0.0463,0.0312,0.0312,0.0376,0.0303,0.0299,0.0341,0.0338,0.0336,0.0335,0,0,0,0,0,0,0,0.0148,0.0148,0.0081,0.0071,0.009,0.0327,0.0336,0.0283,0.0302,0.0337,0.0351,0.0386,0.0318,0.038,0.0373,0.0298,0.0341,0.0337,0.0334,0.0332,0.0347,0.035,0,0,0,0,0,0,0.0076,0.0137,0.0071,0.0091,0.013,0.0321,0.0333,0.0253,0.0312,0.0326,0.0385,0.0393,0.0388,0.0379,0.037,0.0401,0.0336,0.0332,0.0329,0.0343,0.0347,0.0351,0,0,0,0,0,0,0.0075,0.0062,0.0059,0.0131,0.0146,0.0314,0.0227,0.0259,0.0336,0.0353,0.0358,0.043,0.0388,0.0376,0.0407,0.0393,0.033,0.0325,0.0339,0.0345,0.0349,0.0404,0,0,0,0,0,0,0.0075,0.0057,0.0017,0.012,0.0139,0.0167,0.0227,0.0264,0.0354,0.0369,0.0391,0.0385,0.0388,0.0415,0.0402,0.0386,0.0322,0.0335,0.0342,0.0347,0.0398,0.041,0.042,0,0,0,0,0,0.0076,-0.0018,0.0009,0.0006,0.0057,0.0168,0.0201,0.0331,0.0355,0.04,0.0457,0.0385,0.0444,0.0415,0.0399,0.038,0.0332,0.034,0.0347,0.0393,0.0408,0.042,0,0,0,0,0,0,0.0023,-0.0005,0.0027,-0.0069,0.0056,0.0199,0.0284,0.0325,0.0413,0.0428,0.0425,0.0424,0.0428,0.042,0.0388,0.0414,0.0373,0.0377,0.0413,0.0426,0.0437,0.0469,0.0318,0,0,0,0,0,-0.0018,-0.0098,-0.0026,-0.0071,-0.0003,0.0138,0.021,0.0273,0.0357,0.0402,0.0443,0.0466,0.0446,0.0453,0.0447,0.0459,0.04,0.0444,0.0455,0.0464,0.0488,0.0381,0.0382,0.0375,0.0375,0.0375,0,0,-0.0021,-0.0059,-0.0083,-0.008,0.0052,0.0139,0.0187,0.029,0.0358,0.0359,0.0494,0.0481,0.0455,0.0494,0.0493,0.0486,0.0445,0.0474,0.0481,0.05,0.0388,0.0388,0.0387,0.038,0.0379,0.0378,0,0,-0.0065,-0.0105,-0.015,-0.0053,0.0074,0.0154,0.0169,0.0324,0.0407,0.0516,0.0509,0.0533,0.0571,0.0563,0.0545,0.061,0.0485,0.0586,0.068,0.0575,0.0573,0.057,0.0516,0.0508,0.0616,0.0616,0.0616,0,-0.005,-0.0126,-0.0112,-0.0075,0.0047,0.0148,0.0239,0.0315,0.046,0.0512,0.0574,0.0633,0.0611,0.058,0.0649,0.0623,0.0562,0.0615,0.0581,0.0577,0.0573,0.0519,0.0509,0.062,0.0619,0.0619,0.0619,0,-0.0067,-0.0086,-0.0057,-0.0007,0.0102,0.0212,0.0331,0.0431,0.0542,0.0601,0.0666,0.0705,0.0735,0.0722,0.0722,0.0671,0.0636,0.0574,0.0528,0.0576,0.0518,0.0507,0.0625,0.0623,0.0622,0.0622,0,0,-0.0081,-0.0088,-0.0054,-0.0009,0.017,0.0237,0.0379,0.0509,0.056,0.0699,0.0789,0.0809,0.0814,0.0801,0.0763,0.073,0.067,0.0676,0.0669,0.0593,0.0464,0.045,0.0435,0.0574,0.0572,0.0571,0.0439,0,-0.0027,-0.0065,-0.0009,0.0115,0.0167,0.0346,0.0455,0.0556,0.0683,0.078,0.0798,0.0844,0.083,0.0858,0.0808,0.0649,0.0641,0.0715,0.0459,0.0453,0.0405,0.0422,0.0425,0.0308,0.0428,0.0426,0.0424,0,0.0004,-0.0032,0.0013,0.0119,0.0186,0.0287,0.0509,0.0621,0.0731,0.0829,0.0883,0.0887,0.0841,0.0871,0.0648,0.068,0.0621,0.0546,0.0536,0.0498,0.0417,0.028,0.0281,0.0404,0.0406,0.0407,0.0408,0,-0.0049,0.0026,0.0028,0.0097,0.0214,0.0333,0.047,0.0626,0.0746,0.0863,0.0949,0.0858,0.0871,0.0713,0.0579,0.0596,0.0355,0.0327,0.0285,0.0284,0.023,0.0227,0.0264,0.0264,0.0264,0.0265,0.0265,0,-0.0033,0.0004,-0.001,0.0016,0.0132,0.0271,0.0447,0.0583,0.0763,0.0896,0.0943,0.1019,0.0841,0.0708,0.0559,0.0349,0.0306,0.0313,0.0242,0.0258,0.0259,0.0297,0.0303,0.026,0.0261,0.0262,0.0263,0,-0.0082,-0.0108,-0.0077,0.0022,0.0087,0.0193,0.0493,0.0616,0.0765,0.0967,0.1024,0.108,0.0915,0.0715,0.0468,0.0343,0.0131,0.0117,0.0182,0.0123,0.0153,0.0164,0.0025,0.0024,0.0022,0.0021,0.002,0,-0.0141,-0.0175,-0.0089,-0.0005,0.0081,0.0252,0.0416,0.0624,0.0785,0.1017,0.1111,0.1074,0.106,0.0648,0.0401,0.0097,0.013,-0.001,0.0052,0.0181,0.0125,0.0138,0.0151,0.0009,0.0008,0.0007,0.0006,0,-0.019,-0.017,-0.0124,0.0019,0.0188,0.036,0.0603,0.0694,0.0967,0.1101,0.1261,0.1261,0.0996,0.0676,0.0315,0.0149,0.0,-0.003,0.0011,0.0084,0.0157,0.0106,0.0119,-0.0002,-0.0001,-0.0,0.0,0.0,-0.0172,-0.0123,-0.0057,0.0126,0.0307,0.0511,0.0649,0.0867,0.1075,0.1297,0.1286,0.1263,0.0938,0.0433,0.0194,0.0004,0.0014,-0.007,-0.0065,-0.006,-0.0023,0.0044,-0.0125,-0.0125,-0.0125,-0.0125,-0.0125,0,-0.011,-0.0054,0.0078,0.0296,0.0511,0.0597,0.082,0.0941,0.116,0.1281,0.136,0.1013,0.071,0.0417,0.0125,-0.0072,-0.0044,-0.0104,-0.0053,-0.0048,-0.0042,-0.0,-0.01,-0.0099,-0.0099,-0.0098,0,0,-0.0081,0.0039,0.0117,0.0443,0.0624,0.0863,0.0973,0.1108,0.1179,0.1247,0.121,0.1043,0.0678,0.0435,0.0171,0.0064,0.0084,0.0063,0.0048,0.0143,0.0153,-0.0037,0.0031,0,0,0,0,0]}],[{"header":{"parameterUnit":"m.s-1","parameterCategory":2,"la1":30.2991,"la2":30.254,"lo1":-89.0895,"lo2":-89.0444,"dy":0.0017,"dx":0.0017,"nx":28,"ny":28,"refTime":"2023-07-20T03:00:00:Z","depth":"4","parameterNumber":2,"parameterNumberName":"U-component_of_CURRENTS"},"data":[0,0,0,0,0,0,0,0,0,0,0,0,0,0,0,0,0,0,0,0,0,0,0,0,0,0,0,0,0,0,0,0,0,0,0,0,0,0,0,0,0,0,0,0,0,0,0,0,0,0,0,0,0,0,0,0,0,0,-0.0473,-0.0474,0,-0.0477,-0.0477,-0.0476,-0.031,-0.0306,-0.0303,-0.0299,-0.0178,-0.0178,-0.0178,0,0,0,0,0,0,0,0,0,0,0,0,0,-0.0395,-0.0396,-0.0473,-0.0474,-0.0475,-0.0478,-0.0477,-0.0476,-0.031,-0.0306,-0.0302,-0.0298,-0.0178,-0.0178,-0.0178,0,0,0,0,0,0,0,0,0,0,0,0,0,-0.0408,-0.0397,-0.0473,-0.0399,-0.0393,-0.0478,-0.0477,-0.0476,-0.0311,-0.0306,-0.0301,-0.0296,-0.0178,-0.0178,-0.0178,-0.0286,0,0,-0.0179,-0.0179,0,0,0,0,0,0,0,0,-0.0408,-0.041,-0.0409,-0.0405,-0.0398,-0.0396,-0.0406,-0.0409,-0.0313,-0.0333,-0.0299,-0.0293,-0.025,-0.0244,-0.0245,-0.0281,-0.0275,-0.0179,-0.0179,-0.0179,-0.0179,0,0,0,0,0,0,0,-0.0407,-0.041,-0.0465,-0.0411,-0.0404,-0.0393,-0.0387,-0.0406,-0.0311,-0.033,-0.0321,-0.0338,-0.0243,-0.0245,-0.024,-0.0274,-0.0179,-0.0179,-0.0179,-0.0179,-0.0272,-0.0274,0,0,0,0,0,0,-0.0428,-0.0409,-0.0465,-0.0466,-0.0401,-0.0399,-0.0392,-0.0394,-0.0313,-0.03,-0.0343,-0.0331,-0.0247,-0.024,-0.0235,-0.021,-0.0179,-0.0179,-0.0179,-0.0269,-0.0272,-0.0275,0,0,0,0,0,0,-0.0426,-0.0433,-0.0465,-0.0445,-0.045,-0.0406,-0.041,-0.0398,-0.0367,-0.0326,-0.0306,-0.0322,-0.0243,-0.0235,-0.0239,-0.0209,-0.0179,-0.0179,-0.0267,-0.027,-0.0274,-0.0255,0,0,0,0,0,0,-0.0424,-0.0431,-0.0425,-0.0447,-0.0452,-0.0485,-0.0416,-0.0402,-0.0393,-0.0375,-0.0305,-0.0288,-0.0238,-0.0239,-0.0239,-0.0209,-0.018,-0.0264,-0.0268,-0.0273,-0.0253,-0.0258,-0.0262,0,0,0,0,0,-0.0421,-0.0409,-0.0424,-0.0431,-0.0449,-0.0487,-0.0487,-0.0432,-0.0397,-0.0384,-0.0352,-0.0289,-0.0265,-0.0243,-0.0241,-0.021,-0.0262,-0.0267,-0.0272,-0.0251,-0.0257,-0.0262,0,0,0,0,0,0,-0.0375,-0.0395,-0.0409,-0.0406,-0.0446,-0.0461,-0.0448,-0.0444,-0.0416,-0.0388,-0.0337,-0.0322,-0.031,-0.03,-0.0276,-0.026,-0.0248,-0.0254,-0.0233,-0.0238,-0.0243,-0.0198,-0.018,0,0,0,0,0,-0.0378,-0.0365,-0.0416,-0.0423,-0.0439,-0.0459,-0.0465,-0.0448,-0.0443,-0.0421,-0.0372,-0.0345,-0.0348,-0.032,-0.0317,-0.0326,-0.0317,-0.0307,-0.0312,-0.0315,-0.0285,-0.0317,-0.0319,-0.0292,-0.0292,-0.0292,0,0,-0.0383,-0.0382,-0.0387,-0.0413,-0.0433,-0.0438,-0.0441,-0.0455,-0.0438,-0.0422,-0.0356,-0.0367,-0.0364,-0.035,-0.0342,-0.032,-0.0319,-0.0322,-0.0324,-0.0291,-0.0322,-0.0324,-0.0326,-0.0296,-0.0295,-0.0295,0,0,-0.0367,-0.0377,-0.0359,-0.038,-0.0412,-0.0423,-0.0432,-0.0446,-0.0418,-0.0425,-0.04,-0.0406,-0.0385,-0.0366,-0.0364,-0.0414,-0.0359,-0.0407,-0.0362,-0.0394,-0.0395,-0.0396,-0.0374,-0.0373,-0.0387,-0.0387,-0.0387,0,-0.0375,-0.035,-0.037,-0.0355,-0.0364,-0.0412,-0.0409,-0.0412,-0.0415,-0.0406,-0.0387,-0.039,-0.0388,-0.0385,-0.0383,-0.0413,-0.0406,-0.0329,-0.0394,-0.0395,-0.0396,-0.0374,-0.0372,-0.0387,-0.0387,-0.0387,-0.0387,0,-0.0353,-0.0327,-0.0324,-0.0308,-0.0319,-0.0335,-0.0359,-0.0348,-0.0341,-0.0344,-0.0345,-0.0368,-0.0353,-0.0371,-0.0381,-0.0386,-0.0371,-0.0409,-0.0363,-0.0396,-0.0372,-0.0371,-0.0387,-0.0387,-0.0387,-0.0387,0,0,-0.0385,-0.0322,-0.0317,-0.0296,-0.0295,-0.0312,-0.0286,-0.0296,-0.0275,-0.0281,-0.0252,-0.0288,-0.0298,-0.0302,-0.0328,-0.0348,-0.0358,-0.0362,-0.0364,-0.0308,-0.0379,-0.033,-0.0324,-0.0401,-0.0402,-0.0402,-0.0353,0,-0.037,-0.0323,-0.0286,-0.0251,-0.024,-0.0246,-0.022,-0.0227,-0.0225,-0.0201,-0.0245,-0.0237,-0.0274,-0.0271,-0.03,-0.0348,-0.0356,-0.0364,-0.0383,-0.0382,-0.0309,-0.0323,-0.0403,-0.0352,-0.0352,-0.0352,-0.0352,0,-0.0351,-0.0317,-0.0284,-0.0214,-0.0212,-0.0194,-0.0169,-0.0152,-0.0142,-0.0137,-0.0134,-0.0153,-0.0167,-0.0218,-0.0268,-0.0265,-0.0308,-0.035,-0.035,-0.0301,-0.0331,-0.0323,-0.035,-0.035,-0.035,-0.035,-0.035,0,-0.0375,-0.03,-0.0271,-0.0261,-0.021,-0.0186,-0.0157,-0.0137,-0.0118,-0.0091,-0.0072,-0.0089,-0.0094,-0.0155,-0.0233,-0.0239,-0.03,-0.0327,-0.0317,-0.0313,-0.0375,-0.0375,-0.0371,-0.0371,-0.0371,-0.0371,-0.0371,0,-0.0352,-0.0323,-0.0279,-0.0279,-0.0235,-0.0191,-0.0151,-0.0121,-0.0078,-0.006,-0.0042,-0.0055,-0.0084,-0.0124,-0.0199,-0.0239,-0.0273,-0.0286,-0.03,-0.037,-0.0371,-0.0372,-0.0373,-0.0369,-0.037,-0.037,-0.037,0,-0.0351,-0.033,-0.0312,-0.0273,-0.025,-0.0225,-0.0145,-0.0117,-0.0067,-0.0037,-0.002,-0.0011,-0.0042,-0.0078,-0.0166,-0.0182,-0.0247,-0.027,-0.0298,-0.0319,-0.023,-0.0231,-0.0191,-0.0189,-0.0188,-0.0186,-0.0185,0,-0.0339,-0.0327,-0.0337,-0.0326,-0.0298,-0.0246,-0.021,-0.0134,-0.0104,-0.005,-0.0049,-0.0028,-0.0037,-0.0074,-0.0149,-0.0194,-0.0235,-0.021,-0.0238,-0.0195,-0.0213,-0.0217,-0.022,-0.0182,-0.0182,-0.0181,-0.0181,0,-0.031,-0.034,-0.0349,-0.0356,-0.0328,-0.0271,-0.0212,-0.0177,-0.01,-0.0065,-0.0026,-0.0007,-0.0025,-0.006,-0.007,-0.0152,-0.0182,-0.0192,-0.0196,-0.0222,-0.0183,-0.0204,-0.0209,-0.0175,-0.0176,-0.0176,-0.0176,0,-0.0318,-0.0325,-0.0369,-0.0358,-0.0341,-0.0288,-0.0248,-0.0178,-0.0122,-0.0029,-0.0057,-0.0049,-0.0041,-0.0046,-0.0119,-0.0107,-0.0105,-0.0085,-0.0095,-0.0102,-0.0103,-0.0042,0.0019,0,0,0,0,0,-0.0296,-0.0304,-0.033,-0.0331,-0.033,-0.0306,-0.0244,-0.0204,-0.0138,-0.0084,-0.0034,-0.0053,-0.0035,-0.0078,-0.0051,-0.0127,-0.0143,-0.0096,-0.0134,-0.0141,-0.0148,-0.0161,0,0,0,0,0,0,-0.0291,-0.0312,-0.0339,-0.0322,-0.0309,-0.0276,-0.0239,-0.0191,-0.0148,-0.0087,-0.0095,-0.0034,-0.006,-0.0047,-0.0051,-0.0055,-0.0068,-0.0093,-0.0091,-0.0137,-0.0143,-0.0149,-0.0165,0,0,0,0,0]},{"header":{"parameterUnit":"m.s-1","parameterCategory":2,"la1":30.2991,"la2":30.254,"lo1":-89.0895,"lo2":-89.0444,"dy":0.0017,"dx":0.0017,"nx":28,"ny":28,"refTime":"2023-07-20T03:00:00:Z","depth":"4","parameterNumber":3,"parameterNumberName":"V-component_of_CURRENTS"},"data":[0,0,0,0,0,0,0,0,0,0,0,0,0,0,0,0,0,0,0,0,0,0,0,0,0,0,0,0,0,0,0,0,0,0,0,0,0,0,0,0,0,0,0,0,0,0,0,0,0,0,0,0,0,0,0,0,0,0,0.0142,0.014,0,0.0002,0.0001,-0.0001,-0.0156,-0.0158,-0.0161,-0.0163,-0.0373,-0.0376,-0.0379,0,0,0,0,0,0,0,0,0,0,0,0,0,0.0249,0.0248,0.0142,0.014,0.0138,0.0002,0.0001,-0.0001,-0.0155,-0.0158,-0.0161,-0.0164,-0.0372,-0.0376,-0.0379,0,0,0,0,0,0,0,0,0,0,0,0,0,0.0167,0.0248,0.0142,0.0043,0.0033,0.0003,0.0001,-0.0002,-0.0155,-0.0159,-0.0162,-0.0166,-0.037,-0.0375,-0.038,-0.0336,0,0,-0.0395,-0.0397,0,0,0,0,0,0,0,0,0.0172,0.0164,0.006,0.005,0.0038,-0.0065,-0.0039,-0.0118,-0.0154,-0.0081,-0.0163,-0.0168,-0.0275,-0.0288,-0.0302,-0.0346,-0.0355,-0.0396,-0.0398,-0.0401,-0.0402,0,0,0,0,0,0,0,0.0178,0.0169,0.0089,0.0058,0.0045,-0.0004,-0.0019,-0.0054,-0.0155,-0.0088,-0.01,-0.0118,-0.0282,-0.0297,-0.0308,-0.0358,-0.0395,-0.04,-0.0403,-0.0405,-0.0517,-0.0517,0,0,0,0,0,0,0.0197,0.0175,0.0093,0.0084,0.0095,-0.0003,-0.002,-0.0026,-0.0154,-0.0177,-0.0115,-0.0125,-0.0286,-0.0302,-0.0316,-0.0392,-0.0401,-0.0405,-0.0408,-0.0517,-0.0517,-0.0517,0,0,0,0,0,0,0.02,0.0191,0.0099,0.0124,0.0108,-0.0001,-0.0007,-0.0027,-0.0089,-0.0174,-0.0199,-0.0162,-0.029,-0.0309,-0.0371,-0.0397,-0.0407,-0.0412,-0.0517,-0.0517,-0.0517,-0.0467,0,0,0,0,0,0,0.0204,0.0194,0.0197,0.0126,0.0107,0.0069,-0.0005,-0.0027,-0.0093,-0.0108,-0.0221,-0.0242,-0.0294,-0.0363,-0.0375,-0.0404,-0.0416,-0.0517,-0.0517,-0.0517,-0.0469,-0.0465,-0.0462,0,0,0,0,0,0.0208,0.0223,0.0199,0.0188,0.0116,0.0069,0.0056,-0.0033,-0.0091,-0.0105,-0.0183,-0.0241,-0.0374,-0.0365,-0.0381,-0.0412,-0.0517,-0.0517,-0.0517,-0.047,-0.0466,-0.0463,0,0,0,0,0,0,0.0244,0.0207,0.0178,0.0173,0.0121,0.0041,0.0029,-0.004,-0.0111,-0.0134,-0.0228,-0.0252,-0.0321,-0.036,-0.0349,-0.0444,-0.046,-0.0463,-0.0418,-0.0415,-0.0412,-0.0406,-0.042,0,0,0,0,0,0.0267,0.0277,0.0217,0.0207,0.0196,0.011,0.0078,0.0014,-0.0057,-0.0095,-0.0189,-0.0268,-0.0321,-0.0364,-0.0417,-0.0454,-0.0456,-0.0487,-0.0484,-0.0481,-0.0486,-0.0481,-0.0477,-0.0518,-0.0518,-0.0518,0,0,0.0269,0.0255,0.0253,0.0218,0.018,0.015,0.0081,0.0035,-0.0015,-0.0101,-0.0199,-0.0261,-0.0327,-0.038,-0.0415,-0.0425,-0.0468,-0.0482,-0.0479,-0.0485,-0.048,-0.0476,-0.0473,-0.0518,-0.0518,-0.0518,0,0,0.0283,0.0282,0.0292,0.0264,0.0215,0.0174,0.0154,0.0058,0.0,-0.0074,-0.0155,-0.0219,-0.0325,-0.0371,-0.0403,-0.0406,-0.0449,-0.0449,-0.0435,-0.0429,-0.0425,-0.0422,-0.0398,-0.0393,-0.045,-0.045,-0.045,0,0.0269,0.0279,0.0281,0.0274,0.0238,0.0181,0.0147,0.0109,-0.0015,-0.0062,-0.0103,-0.0256,-0.0312,-0.0365,-0.0381,-0.04,-0.0405,-0.0442,-0.0423,-0.042,-0.0417,-0.0394,-0.039,-0.0447,-0.0448,-0.0448,-0.0448,0,0.0287,0.028,0.0287,0.0266,0.024,0.0207,0.0156,0.0103,0.0023,-0.0042,-0.0133,-0.0196,-0.0297,-0.032,-0.0358,-0.0387,-0.0397,-0.0413,-0.0427,-0.041,-0.0387,-0.0383,-0.0444,-0.0445,-0.0445,-0.0446,0,0,0.0263,0.0286,0.028,0.0256,0.0223,0.0189,0.0155,0.0088,0.0028,-0.0051,-0.0133,-0.0201,-0.026,-0.0299,-0.0353,-0.0351,-0.0329,-0.0387,-0.0387,-0.0353,-0.0312,-0.0327,-0.0324,-0.0353,-0.0352,-0.0352,-0.0294,0,0.0246,0.0235,0.0251,0.0204,0.0184,0.0146,0.0108,0.0049,-0.0014,-0.0095,-0.0129,-0.0219,-0.024,-0.0307,-0.03,-0.0337,-0.0321,-0.0343,-0.0344,-0.0343,-0.035,-0.0321,-0.0351,-0.0291,-0.0291,-0.029,-0.0289,0,0.0249,0.0234,0.0194,0.0153,0.0139,0.0099,0.0015,-0.0027,-0.009,-0.0142,-0.0196,-0.0246,-0.0269,-0.029,-0.0283,-0.0305,-0.031,-0.031,-0.0308,-0.0342,-0.0352,-0.032,-0.0282,-0.0283,-0.0283,-0.0284,-0.0284,0,0.0218,0.0192,0.0151,0.0133,0.0084,0.0039,-0.0,-0.0064,-0.01,-0.0181,-0.022,-0.0252,-0.0292,-0.0276,-0.027,-0.0296,-0.024,-0.0271,-0.0271,-0.0271,-0.0296,-0.0301,-0.0253,-0.0253,-0.0253,-0.0253,-0.0254,0,0.018,0.0147,0.0124,0.0091,0.002,-0.0002,-0.0078,-0.0126,-0.0173,-0.0205,-0.0255,-0.0282,-0.0297,-0.0272,-0.0256,-0.0233,-0.0217,-0.0261,-0.026,-0.0274,-0.0277,-0.0292,-0.0297,-0.0251,-0.0252,-0.0252,-0.0252,0,0.0134,0.0128,0.0085,0.0029,0.0006,-0.0054,-0.0105,-0.0147,-0.0195,-0.0232,-0.0256,-0.03,-0.0296,-0.0264,-0.0245,-0.0228,-0.0194,-0.0189,-0.0176,-0.0176,-0.0235,-0.0239,-0.0203,-0.0203,-0.0203,-0.0203,-0.0203,0,0.0109,0.0085,0.0041,0.0013,-0.0025,-0.0092,-0.0128,-0.0171,-0.0191,-0.023,-0.024,-0.0272,-0.0292,-0.0239,-0.023,-0.0178,-0.0188,-0.0155,-0.0231,-0.0229,-0.0231,-0.0234,-0.0238,-0.0203,-0.0203,-0.0203,-0.0203,0,0.0059,0.0052,0.0013,-0.0036,-0.0081,-0.0122,-0.0168,-0.0175,-0.0205,-0.0222,-0.024,-0.0256,-0.0261,-0.0257,-0.0217,-0.018,-0.0167,-0.0157,-0.0158,-0.023,-0.0229,-0.0232,-0.0235,-0.0204,-0.0204,-0.0204,-0.0204,0,0.0026,-0.0001,-0.0029,-0.0082,-0.0121,-0.0155,-0.0175,-0.0191,-0.021,-0.0225,-0.0221,-0.0242,-0.0254,-0.0257,-0.0199,-0.0183,-0.0217,-0.0211,-0.021,-0.021,-0.0244,-0.0246,-0.0217,0,0,0,0,0,-0.001,-0.0031,-0.0065,-0.0124,-0.0158,-0.0181,-0.0197,-0.0201,-0.0198,-0.0206,-0.0215,-0.0215,-0.0222,-0.0232,-0.0224,-0.0229,-0.0216,-0.022,-0.0208,-0.0205,-0.0205,-0.0247,0,0,0,0,0,0,-0.0044,-0.0067,-0.0069,-0.0136,-0.0177,-0.0224,-0.0229,-0.023,-0.0229,-0.0219,-0.0223,-0.0216,-0.0221,-0.0228,-0.0228,-0.0226,-0.0218,-0.0219,-0.0219,-0.0206,-0.0205,-0.0205,-0.0248,0,0,0,0,0]}]]